Location: Unspecified
(0.0000°N, 0.0000°E)
Time: 06:34:12
(UTC+00:00)

Courier 1B - Pass Details

Date: 28 November 2019
Orbit: 963 x 1209 km, 28.3° (Epoch: 11 December)

Event Time Altitude Azimuth Distance (km) Brightness Sun altitude
Rises 09:30:59 0° 306° (NW) 3,729 10.2 50.4°
Reaches altitude 10° 09:33:44 10° 309° (NW) 2,750 9.6 51.0°
Maximum altitude 09:40:17 64° 30° (NNE) 1,061 8.5 52.3°
Drops below altitude 10° 09:46:40 10° 111° (ESE) 2,686 10.6 53.6°
Sets 09:49:20 0° 114° (ESE) 3,636 11.0 54.1°
